[Iaude] MPEC F08: 2024 EU4 [a=2.08,e=0.80,i=8.2,H=22.1]

mpec at cfa.harvard.edu mpec at cfa.harvard.edu
Sun Mar 17 09:40:16 EDT 2024


M.P.E.C. 2024-F08                                Issued 2024 March 17, 13:38 UT

     The Minor Planet Electronic Circulars contain information on unusual
         minor planets, routine data on comets and natural satellites,
         and occasional editorial announcements.  They are published
    on behalf of Division F of the International Astronomical Union by the
          Minor Planet Center, Smithsonian Astrophysical Observatory,
                          Cambridge, MA 02138, U.S.A.
			  
             Prepared using the Tamkin Foundation Computer Network

                              MPC at CFA.HARVARD.EDU
            URL https://www.minorplanetcenter.net/    ISSN 1523-6714

                                    2024 EU4                                    


Observations:
     K24E04U  C2024 02 18.51952112 59 43.150-02 29 15.31         22.19GVEF008F51
     K24E04U  C2024 02 18.53178512 59 43.750-02 29 22.25         21.84GVEF008F51
     K24E04U  C2024 02 18.54408512 59 44.424-02 29 29.57         22.48GVEF008F51
     K24E04U  C2024 02 18.55636312 59 45.048-02 29 36.43         22.61GVEF008F51
     K24E04U  C2024 02 18.57697612 59 46.140-02 29 49.59         23.48GVEF008F51
     K24E04U  C2024 02 18.60046012 59 47.354-02 30 02.41         23.16GVEF008F51
     K24E04U* C2024 03 15.95269513 51 39.554-16 16 04.44         19.71cVEF008M22
     K24E04U  C2024 03 16.00087413 51 58.682-16 21 57.42         19.31cVEF008M22
     K24E04U  C2024 03 16.00411913 51 59.959-16 22 21.47         19.31cVEF008M22
     K24E04U  C2024 03 16.00595513 52 00.698-16 22 35.11         19.09cVEF008M22
     K24E04U  C2024 03 16.03092813 52 10.704-16 25 38.35         18.95cVEF008M22
     K24E04U  C2024 03 16.03796813 52 13.514-16 26 30.26         19.02cVEF008M22
     K24E04U KC2024 03 16.09456913 52 37.874-16 34 51.64         20.4 GVEF008J95
     K24E04U  C2024 03 16.10965413 52 47.95 -16 35 16.7                WEF008X09
     K24E04U  C2024 03 16.11670213 52 50.94 -16 36 09.8                WEF008X09
     K24E04U KC2024 03 16.11682413 52 47.064-16 37 37.49         20.1 GVEF008J95
     K24E04U KC2024 03 16.11853413 52 47.73 -16 37 47.6          19.2 GXEF008958
     K24E04U KC2024 03 16.12255213 52 49.36 -16 38 16.4          19.3 GXEF008958
     K24E04U KC2024 03 16.12306213 52 49.642-16 38 24.90         19.5 GVEF008J95
     K24E04U KC2024 03 16.12645513 52 51.02 -16 38 46.4          18.8 GXEF008958
     K24E04U  C2024 03 16.14667 13 52 57.90 -16 39 59.3          19.4 GVEF008M28
     K24E04U  C2024 03 16.14871 13 52 58.76 -16 40 14.3          19.5 GVEF008M28
     K24E04U  C2024 03 16.15075 13 52 59.59 -16 40 29.8          19.5 GVEF008M28
     K24E04U |C2024 03 16.31919213 54 16.720-17 02 14.90         18.8 GVEF008807
     K24E04U |C2024 03 16.32139013 54 17.670-17 02 32.00         18.8 GVEF008807
     K24E04U |C2024 03 16.32359013 54 18.630-17 02 49.30         18.8 GVEF008807
     K24E04U KC2024 03 16.32616913 54 20.92 -17 04 22.1                VEF008H21
     K24E04U KC2024 03 16.32816913 54 21.79 -17 04 38.2          19.1 GVEF008H21
     K24E04U KC2024 03 16.33015913 54 22.66 -17 04 53.9          19.0 GVEF008H21
     K24E04U KC2024 03 16.38241 13 54 47.686-17 11 48.73         19.0 GVEF008U52
     K24E04U KC2024 03 16.38616 13 54 49.380-17 12 19.19         19.7 GVEF008U52
     K24E04U KC2024 03 16.38990 13 54 51.000-17 12 49.39         19.7 GVEF008U52
     K24E04U KC2024 03 16.94748613 59 31.69 -18 30 53.1          19.3 GVEF008M21
     K24E04U pC2024 03 16.94785813 59 31.26 -18 32 09.5          18.5 GVEF008L01
     K24E04U pC2024 03 16.94934013 59 32.03 -18 32 22.8          19.5 GVEF008L01
     K24E04U pC2024 03 16.95082213 59 32.80 -18 32 35.6          19.4 GVEF008L01
     K24E04U pC2024 03 16.95217913 59 33.52 -18 32 48.5          18.7 GVEF008L01
     K24E04U pC2024 03 16.95378113 59 34.33 -18 33 02.9          18.7 GVEF008L01
     K24E04U KC2024 03 16.96597713 59 41.20 -18 33 43.0          18.6 GVEF008M21
     K24E04U KC2024 03 16.99530513 59 56.30 -18 39 25.9          18.8 GVEF008104
     K24E04U KC2024 03 16.99965713 59 58.57 -18 40 06.0          18.6 GVEF008104
     K24E04U  C2024 03 17.00717 14 00 02.09 -18 39 52.4          18.8 GVEF008M28
     K24E04U  C2024 03 17.00923 14 00 03.11 -18 40 10.8          18.8 GVEF008M28
     K24E04U  C2024 03 17.01130 14 00 04.17 -18 40 30.0          18.6 GVEF008M28
     K24E04U KB2024 03 17.11339714 01 03.270-18 56 37.51         18.6 VZEF008Y05
     K24E04U KB2024 03 17.12265614 01 08.270-18 58 05.65         18.0 VZEF008Y05
     K24E04U KB2024 03 17.13166614 01 13.110-18 59 32.42         19.6 VZEF008Y05
     K24E04U KB2024 03 17.24153 14 02 15.99 -19 18 08.1          18.6 GXEF008W42
     K24E04U KB2024 03 17.24723 14 02 19.21 -19 19 05.1          18.4 GXEF008W42
     K24E04U KB2024 03 17.25313 14 02 22.49 -19 20 03.5          18.3 GXEF008W42
     K24E04U |C2024 03 17.28620014 02 40.230-19 24 20.00         18.5 GVEF008807
     K24E04U |C2024 03 17.28767014 02 41.060-19 24 34.70         18.7 GVEF008807
     K24E04U |C2024 03 17.28914014 02 41.880-19 24 49.10         18.7 GVEF008807
     K24E04U KC2024 03 17.40976 14 03 55.231-19 46 23.12         19.5 GVEF008U52
     K24E04U KC2024 03 17.41667 14 03 59.354-19 47 32.96         18.0 GVEF008U52

Observer details:
104 San Marcello Pistoiese.  Observers P. Bacci, M. Maestripieri.  Measurers
    P. Bacci, L. Tesi, G. Fagioli.  0.60-m F4 Reflector + CCD.
807 Cerro Tololo Observatory, La Serena.  Observers T. Linder, R. Holmes.
    0.61-m f/6.8 Ritchey-Chretien + CCD.
958 Observatoire de Dax.  Observers P. Dupouy, J. B. de Vanssay.  Measurer P.
    Dupouy.  0.43-m f/2.7 Reflector + CCD.
F51 Pan-STARRS 1, Haleakala.  Observers J. Herman, T. Lowe, P. Minguez, A.
    Schultz, I. Smith.  Measurers K. Chambers, T. de Boer, J. Fairlamb, H.
    Gao, M. Huber, C.-C. Lin, E. Magnier, Y. Ramanjooloo, R. Wainscoat, R.
    Weryk.  1.8-m Ritchey-Chretien + CCD.
H21 Astronomical Research Observatory, Westfield.  Observer R. Holmes.
    Measurers T. Linder, R. Holmes, L. Horn.  0.81-m f/4.0 astrograph + CCD.
J95 Great Shefford.  Observer P. Birtwhistle.  0.41-m f/6.3 Schmidt-Cassegrain
    + CCD.
L01 Visnjan Observatory, Tican.  Observer K. Korlevic.  1.0-m f/2.9 reflector
    + CCD.
M21 Schiaparelli Southern Observatory, Hakos.  Observers A. Aletti, F.
    Bellini, L. Buzzi, G. Galli.  Measurer L. Buzzi.  0.36-m f/8.4 reflector +
    CCD.
M22 ATLAS South Africa, Sutherland.  Observers L. Denneau, R. Siverd, J.
    Tonry, H. Weiland.  Measurers L. Denneau, N. Erasmus, A. Fitzsimmons, J.
    Robinson, R. Siverd, J. Tonry, H. Weiland.  0.5-m Reflector + CCD.
M28 Lesedi Telescope-SAAO Observatory, Sutherland.  Observers N. Erasmus, S.
    Potter, C. van Gend, S. Chandra, H. Worters.  Measurers T. Ngwane, N.
    Erasmus.  1.0-m f/8 Reflector + CCD.
U52 Shasta Valley Observatory, Grenada.  Observers J. E. Rogers, B. Haeusler.
    Measurers J. E. Rogers, D. Parrott.  0.30-m f/5.2 Helin Telescope + CCD.
W42 Mind's Eye Observatory, Vero Beach.  Observer J. T. Grage.  0.30-m f/3.3
    SCT + CMO.
X09 Deep Random Survey, Rio Hurtado.  Observers A. Schnabel, D. Ruhela.
    Measurer S. Deen.  0.43-m reflector + CMOS.
Y05 SONEAR Wykrota-CEAMIG, Serra da Piedade.  Observer C. Jacques.  0.45-m
    f/2.9 reflector + CMO.

Orbital elements:
2024 EU4                                                 Earth MOID = 0.0233 AU
Epoch 2024 Mar. 31.0 TT = JDT 2460400.5                 Veres                   
M 347.92733              (2000.0)            P               Q                  
n   0.32796019     Peri.  296.89297     +0.38681295     +0.92209956             
a   2.0825174      Node   355.82203     -0.78732369     +0.32436235             
e   0.7970673      Incl.    8.20654     -0.48010119     +0.21100111             
P   3.01           H   22.16          G   0.15           U   7                  
Residuals in seconds of arc
240218 F51  0.3+  0.2-    240316 958  0.6+  0.0     240316 M21  0.0   0.0
240218 F51  0.4-  0.1+    240316 M28  0.3+  0.3-    240316 104  0.1-  0.5-
240218 F51  0.1+  0.0     240316 M28  0.4+  0.0     240316 104  0.2-  0.3-
240218 F51  0.1-  0.4+    240316 M28  0.1+  0.2-    240317 M28  0.7+  0.2-
240218 F51  0.1+  0.7-    240316 807  0.1-  0.2-    240317 M28  0.0   0.5+
240218 F51  0.1-  0.3+    240316 807  0.0   0.0     240317 M28  0.3-  0.5+
240315 M22  0.3-  1.0+    240316 807  0.2+  0.1-    240317 Y05  0.4+  0.3-
240316 M22  0.2-  0.5+    240316 H21  0.1-  0.4+    240317 Y05  0.5+  0.2+
240316 M22  0.4-  0.3+    240316 H21  0.0   0.1+    240317 Y05  0.2+  0.3-
240316 M22  0.3-  0.1+    240316 H21  0.1+  0.1+    240317 W42  0.4-  1.0+
240316 M22  0.2+  0.7+    240316 U52  0.0   0.2+    240317 W42  0.1+  0.2+
240316 M22  0.1+  0.7+    240316 U52  0.5+  0.2-    240317 W42  0.1-  0.1-
240316 J95  0.3+  0.4-    240316 U52  0.0   0.4-    240317 807  0.0   0.1+
240316 X09  0.2-  0.2-    240316 M21  0.2+  0.2-    240317 807  0.0   0.1-
240316 X09  0.1-  0.2+    240316 L01  0.6-  0.1-    240317 807  0.1-  0.1+
240316 J95  0.1-  0.5+    240316 L01  0.7-  0.1+    240317 U52  0.2+  0.7-
240316 958  0.4+  0.7-    240316 L01  0.7-  1.0+    240317 U52  1.0+  0.2+
240316 958  0.0   0.6+    240316 L01  0.5-  0.5+
240316 J95  0.4-  0.0     240316 L01  0.9-  0.8+

Ephemeris:
2024 EU4                 a,e,i = 2.08, 0.80, 8                   q = 0.4226
Date    TT    R. A. (2000) Decl.     Delta      r    Elong.  Phase     V
2024 02 16    12 57 17.7 -02 05 30   0.6369  1.4930   132.4    29.3    23.3
...
2024 03 02    13 13 11.7 -05 15 23   0.3642  1.2995   142.6    27.6    21.8
...
2024 03 10    13 27 12.1 -09 04 20   0.2286  1.1897   146.0    27.8    20.6
...
2024 03 16    13 51 57.1 -16 22 04   0.1326  1.1042   143.5    32.4    19.4
2024 03 17    13 59 56.8 -18 38 57   0.1174  1.0896   141.8    34.4    19.1
2024 03 18    14 10 30.5 -21 33 10   0.1027  1.0751   139.2    37.2    18.9
...
2024 03 24    19 55 10.3 -51 50 00   0.04900 0.9860    75.7   101.6    19.3
...
2024 04 01    00 11 49.4 -15 15 46   0.1474  0.8634    21.1   155.3    27.3
...
2024 04 16    00 44 58.2 -04 15 47   0.4127  0.6292    19.4   148.1    27.3

M. P. C. Staff               (C) Copyright 2024 MPC           M.P.E.C. 2024-F08





More information about the Iaude mailing list